FW2709 Weather Reports


Display with metric or nautical units.
time (UTC)temp
F
wind
direction
speed
MPH
gust
MPH
rain 1hr
in
rain 24hr
in
rain mn
in
humidity
%
barometer
mb
20260505101503 33 86 1.0 0.0 0.00 0.00 0.05 94 1002.7
20260505100008 33 113 0.0 0.0 0.00 0.00 0.05 94 1002.7
20260505094607 34 113 0.0 0.0 0.00 0.00 0.04 94 1002.5
20260505093043 34 112 0.0 0.0 0.00 0.00 0.02 94 1002.0
20260505091503 35 72 0.0 0.0 0.00 0.00 0.02 94 1001.0
20260505090036 36 64 0.0 0.0 0.00 0.00 0.02 94 1001.0
20260505084555 37 61 0.0 0.0 0.00 0.00 0.02 94 1000.3
20260505083030 38 61 1.0 0.0 0.00 0.00 0.02 94 1000.2
20260505081512 38 126 0.0 0.0 0.00 0.00 0.02 94 999.8
20260505080103 38 126 0.0 0.0 0.00 0.00 0.01 94 1000.9
20260505074540 38 126 0.0 0.0 0.00 0.00 0.01 94 1001.2
20260505073045 38 126 1.0 0.0 0.00 0.00 0.01 94 1001.4
20260505071549 38 126 0.0 0.0 0.00 0.00 0.00 94 1001.8
20260505070059 38 126 0.0 0.0 0.00 0.00 0.00 94 1000.3
20260505064544 38 126 0.0 0.0 0.00 0.00 0.00 94 1000.4
20260505063025 38 126 0.0 0.0 0.00 0.00 0.00 94 1000.6
20260505061609 38 126 0.0 0.0 0.00 0.00 0.00 94 1000.6
20260505060002 38 126 0.0 0.0 0.00 0.00 0.00 94 1001.4
20260505054552 38 126 0.0 0.0 0.00 0.00 0.00 94 1001.4
20260505053024 38 126 0.0 0.0 0.00 0.00 0.00 94 1001.3
20260505051503 38 126 0.0 0.0 0.00 0.00 0.00 94 1001.3
20260505041536 38 126 0.0 0.0 0.00 0.00 0.13 94 1001.3
20260505040050 38 126 0.0 0.0 0.00 0.00 0.13 94 1002.0
20260505034512 38 126 0.0 0.0 0.00 0.00 0.13 94 1002.0
20260505033101 38 126 0.0 0.0 0.00 0.00 0.13 93 1002.0
20260505031545 38 126 0.0 0.0 0.00 0.00 0.13 93 1001.7
20260505030044 38 126 0.0 0.0 0.00 0.00 0.13 93 1002.1
20260505024525 39 126 1.0 0.0 0.00 0.00 0.13 92 1001.8
20260505023113 39 126 0.0 0.0 0.00 0.00 0.13 92 1001.8
20260505021548 38 126 0.0 0.0 0.00 0.00 0.13 91 1001.8
20260505020005 39 126 1.0 0.0 0.00 0.00 0.13 90 1001.8
20260505014556 38 126 0.0 0.0 0.00 0.00 0.12 90 1002.4
20260505013019 39 126 0.0 0.0 0.00 0.00 0.12 89 1002.5
20260505011553 39 126 0.0 0.0 0.00 0.00 0.10 88 1002.7
20260505010017 39 126 0.0 0.0 0.00 0.00 0.08 87 1003.3
20260505004524 39 126 0.0 0.0 0.00 0.00 0.07 85 1003.4
20260505003046 39 126 0.0 0.0 0.00 0.00 0.06 82 1003.6
20260505001558 40 127 1.0 0.0 0.00 0.00 0.06 81 1003.0
20260505000003 43 215 3.0 0.0 0.00 0.00 0.04 74 1002.4
20260504234606 46 359 1.0 0.0 0.00 0.00 0.03 66 1002.4
20260504233025 47 356 7.0 0.0 0.00 0.00 0.03 62 1001.6
20260504231606 47 354 8.0 0.0 0.00 0.00 0.03 64 1001.4
20260504230014 46 354 5.0 0.0 0.00 0.00 0.03 68 1001.8
20260504224608 46 354 4.0 0.0 0.00 0.00 0.03 71 1001.5
20260504223031 47 340 5.0 0.0 0.00 0.00 0.03 73 1001.5
20260504221504 48 357 2.0 0.0 0.00 0.00 0.01 53 1001.3
20260504220008 51 359 4.0 0.0 0.00 0.00 0.00 45 1000.1
20260504214607 55 346 4.0 0.0 0.00 0.00 0.00 41 999.1
20260504213111 56 267 3.0 0.0 0.00 0.00 0.00 39 998.5
20260504211530 55 72 2.0 0.0 0.00 0.00 0.00 41 998.6
20260504210052 54 251 3.0 0.0 0.00 0.00 0.00 45 999.5
20260504204531 52 353 1.0 0.0 0.00 0.00 0.00 46 1000.6
20260504203003 52 343 1.0 0.0 0.00 0.00 0.00 44 1001.6
20260504201554 51 353 2.0 0.0 0.00 0.00 0.00 48 1001.6
20260504200003 51 350 1.0 0.0 0.00 0.00 0.00 46 1001.4
20260504194605 52 319 2.0 0.0 0.00 0.00 0.00 43 1001.7
20260504193035 53 339 2.0 0.0 0.00 0.00 0.00 41 1001.2
20260504191502 54 352 2.0 0.0 0.00 0.00 0.00 39 999.8
20260504190019 56 350 4.0 0.0 0.00 0.00 0.00 38 999.8
20260504184609 55 311 4.0 0.0 0.00 0.00 0.00 41 1000.0
20260504183042 56 254 3.0 0.0 0.00 0.00 0.00 37 1000.0
20260504181513 55 354 3.0 0.0 0.00 0.00 0.00 32 1000.6
20260504180038 55 353 2.0 0.0 0.00 0.00 0.00 32 1001.2
20260504174508 54 343 3.0 0.0 0.00 0.00 0.00 32 1001.3
20260504173114 54 336 5.0 0.0 0.00 0.00 0.00 34 1001.5
20260504171533 54 320 4.0 0.0 0.00 0.00 0.00 34 1001.5
20260504150108 50 354 3.0 0.0 0.00 0.00 0.00 34 1001.5
20260504110117 40 199 1.0 0.0 0.00 0.00 0.00 35 1000.9